www.pogodaiklimat.ru

Погода и климат >> Архив погоды >> Антарктида >> Neumayer


ПОГОДА в Neumayer

  • Прогноз погоды в Neumayer
  • Монитор погоды в Neumayer
  • Климат города

АРХИВ ПОГОДЫ в Neumayer

Время (UTC), дата Ветер
(напр.,м/с)
 
Видим.   Явления Облачность Т
(С)
Тd
(С)
f
(%)
Тe
(С)
Тes
(С)
Комфортность P
(гПа)
Po
(гПа)
Тmin
(С)
Tmax
(С)
R
(мм)
R24
(мм)
S
(см)
03 15.10 В 8 н/о н/о -11.0 -13.8 80 -21 -21 984.0 978.7
06 15.10 В 10 н/о н/о -10.7 -13.9 77 -21 -21 985.4 980.0
09 15.10 В 11 1000 м слабый снег {метель} туман 10/9 600 м
[Frnb]
-11.5 -13.4 86 -23 -23 987.3 982.0
12 15.10 В 12 200 м слабый снег {метель} туман 10/10 300 м
[Frnb]
-11.6 -13.3 87 -23 -23 989.4 984.1 -11.7 -10.3
15 15.10 В 13 200 м слабый снег {метель} туман 10/10 1000 м
[Frnb]
-12.1 -14.0 86 -25 -25 990.8 985.5
18 15.10 В 15 200 м слабый снег {метель} туман 10/9 600 м
[Frnb]
-12.5 -14.5 85 -26 -26 992.0 986.6
21 15.10 В 14 200 м слабый снег {метель} туман 10/10 300 м
[Frnb]
-12.1 -13.7 88 -25 -25 993.4 988.1
00 16.10 В 15 50 м снег {метель} туман 10/10 100 м
[Frnb]
-11.5 -12.9 89 -24 -24 993.7 988.3 -12.6 -11.4
03 16.10 В 20 н/о н/о -11.1 -12.3 91 -25 -25 992.2 986.9
06 16.10 В 23 н/о н/о -10.7 -11.9 91 -26 -26 989.9 984.6
09 16.10 В 24 <50 м снег {метель} туман ?/? -10.4 -11.5 92 -25 -25 988.3 983.0
12 16.10 В 26 <50 м снег {метель} туман ?/? -9.0 -9.9 93 -24 -24 987.3 982.0 -11.4 -8.9
15 16.10 В 24 <50 м слабый снег {метель} туман ?/? -8.4 -9.3 93 -23 -23 986.1 980.8
18 16.10 В 22 <50 м слабый снег {метель} туман ?/? -6.8 -7.5 95 -20 -20 983.3 977.9
21 16.10 В 13 200 м слабый снег {метель} туман 10/10 100 м
[Frnb]
-4.0 -4.4 97 -15 -15 981.4 976.0
00 17.10 СВ 18 50 м снег {метель} туман 10/10 100 м
[Frnb]
-1.8 -1.9 99 -13 -13 979.3 973.9 -9.0 -1.5
03 17.10 В 9 н/о н/о -1.6 -2.2 96 -10 -10 983.8 978.4
06 17.10 С 6 н/о н/о -3.3 -3.6 98 -11 -11 991.6 986.3
09 17.10 СВ 4 10 км {снег} 10/10 200 м
[St]
-3.0 -3.5 96 -9 -9 995.8 990.4
12 17.10 СВ 8 10 км {снег} 10/10 50 м
[St]
-2.4 -2.9 96 -11 -11 997.2 991.9 -3.4 -1.5
15 17.10 СВ 9 10 км позёмок {метель} 10/10 200 м
[St]
-3.8 -4.8 93 -13 -13 998.3 992.9
18 17.10 В 10 500 м слабый снег {метель} туман 10/9 300 м
[Frnb]
-3.6 -3.9 98 -13 -13 998.3 992.9
21 17.10 СВ 12 500 м слабый снег {метель} туман 10/10 100 м
[Frnb]
-2.8 -3.0 99 -13 -13 997.5 992.1
00 18.10 СВ 9 500 м слабый снег {метель} туман 10/9 200 м
[Frnb]
-3.4 -3.8 97 -13 -13 996.9 991.6 -4.2 -2.3
03 18.10 СВ 9 н/о н/о -5.1 -6.0 93 -15 -15 996.1 990.8
06 18.10 В 11 н/о н/о -5.2 -5.8 96 -16 -16 995.8 990.5
09 18.10 В 14 200 м слабый снег {метель} туман 10/9 1000 м
[Frnb]
-5.5 -6.1 96 -17 -17 995.9 990.6
12 18.10 В 14 500 м слабый снег {метель} туман 10/9 600 м
[Frnb]
-6.0 -6.8 94 -17 -17 995.5 990.1 -6.0 -3.4
15 18.10 В 19 500 м сильная метель {снег} 10/9 600 м
[Frnb]
-6.4 -7.3 93 -19 -19 994.5 989.1
18 18.10 В 18 200 м сильная метель {снег} 10/9 600 м
[Frnb]
-7.0 -7.8 94 -20 -20 993.7 988.4
21 18.10 В 17 200 м сильная метель 10/10 300 м
[St]
-7.3 -8.1 94 -20 -20 993.3 988.0
00 19.10 В 17 50 м слабый снег {метель} туман 10/9 600 м
[Frnb]
-7.1 -7.9 94 -20 -20 993.0 987.6 -7.4 -5.9
03 19.10 В 18 н/о н/о -8.2 -9.2 92 -21 -21 992.6 987.2
06 19.10 В 17 н/о н/о -9.9 -11.2 90 -23 -23 992.3 986.9
09 19.10 В 16 200 м слабый снег {метель} туман 10/10 300 м
[Frnb]
-9.6 -10.9 90 -22 -22 992.6 987.2
12 19.10 В 15 200 м метель {снег} 8/0
[Ci sp]
-7.8 -10.2 83 -20 -20 991.1 985.7 -10.0 -6.9
15 19.10 В 13 20 км сильный позёмок {метель} 9/0
[Ac lent Cs]
-6.5 -10.3 74 -18 -18 990.1 984.7
18 19.10 В 13 20 км сильный позёмок {метель} 10/0 2000 м
[Ac lent Cs]
-8.0 -10.9 80 -19 -19 989.2 983.8
21 19.10 В 10 20 км позёмок {метель} 9/0
[Ac As Cs]
-10.1 -14.7 69 -21 -21 989.6 984.2
00 20.10 В 6 50 км {метель} 9/0
[Cs]
-12.5 -16.3 73 -21 -21 989.3 983.9 -12.6 -6.4
03 20.10 В 7 н/о н/о -11.7 -16.4 68 -21 -21 988.3 982.9
06 20.10 В 9 н/о н/о -9.9 -14.6 68 -20 -20 987.4 982.0
09 20.10 В 8 50 км 10/0
[Cs]
-9.8 -15.1 65 -19 -19 987.0 981.6
12 20.10 В 9 50 км 10/0
[Cs]
-8.7 -13.4 69 -19 -18 986.6 981.3 -13.7 -8.6
15 20.10 В 13 20 км сильный позёмок {метель} 10/0
[Cs]
-9.8 -13.4 75 -22 -22 985.6 980.2
18 20.10 ЮВ 5 50 км {метель} 10/0
[Cs]
-12.4 -16.4 72 -20 -20 986.5 981.1
21 20.10 В 6 50 км 9/0
[Cs]
-14.1 -19.4 64 -24 -24 987.1 981.7
00 21.10 В 10 50 км позёмок {метель} 3/0
[Cs]
-13.1 -19.1 61 -24 -24 987.7 982.3 -15.5 -8.4
03 21.10 В 11 н/о н/о -14.8 -18.9 71 -27 -27 988.8 983.4
06 21.10 В 14 н/о н/о -14.5 -18.1 74 -28 -28 989.9 984.5
09 21.10 В 11 10 км позёмок {метель} 6/0
[Cs]
-14.0 -17.4 75 -26 -26 991.9 986.5
12 21.10 В 12 10 км сильный позёмок {метель} 5/0
[Cs]
-13.1 -16.8 74 -25 -25 992.5 987.1 -15.7 -13.0
15 21.10 В 12 10 км сильный позёмок {метель} 6/0
[Cs]
-12.9 -16.3 76 -25 -25 993.4 988.1
18 21.10 В 12 20 км сильный позёмок {метель} 3/0
[Cs]
-13.6 -17.1 75 -26 -26 993.7 988.4
21 21.10 ЮВ 4 50 км {метель} 1/0
[Cs]
-18.5 -20.9 81 -27 -27 995.7 990.3

 

Местоположение метеостанции Neumayer (Антарктида): широта -70.66 долгота -8.25 высота над уровнем моря 50 м.

В архиве по умолчанию представлена погода в Neumayer за последнюю неделю. Архивные данные за месяц целиком и за предыдущие месяцы, начиная с января 2011 года, Вы можете получить, выбрав интересующий диапазон дат из раскрывающегося списка и нажав кнопку "Ввод!".

Внимание! Время в таблицах - всемирное. Для получения местного времени необходимо прибавить поправку, которая в Neumayer равна 0 ч.

Смотрите также архив погоды в соседних городах и на ближайших метеорологических станциях:

Погода в S.a.n.a.e. aws (Антарктида) (227 км)
Погода в Nordenskiold Base (Антарктида) (320 км)
Погода в Troll (Антарктида) (406 км)
Погода в Kohnen Ep9 (Антарктида) (552 км)
Погода в Maitri (Антарктида) (732 км)
Погода в Novolazarevskaja (Антарктида) (734 км)
Погода в Halley (Антарктида) (797 км)
Погода в Base Belgrano Ii (Антарктида) (1110 км)
Погода в Relay Station (Антарктида) (1713 км)
Погода в Butler Island (Антарктида) (1789 км)

Пояснения к столбцам:

Ветер - указаны скорость ветра в м/с - средняя за 10 мин, порывы в срок и между сроками (в фигурных скобках) и направление, откуда дует ветер: С - северный, СВ - северо-восточный, В - восточный, ЮВ - юго-восточный, Ю - южный, ЮЗ - юго-западный, З - западный, СЗ - северо-западный.
Видимость - горизонтальная дальность видимости в метрах или километрах. При видимости от 1 до 10 км при отсутствии осадков обычно наблюдается дымка, при ухудшении видимости до 1 км и менее - туман. В сухую погоду видимость может ухудшаться дымом, пылью или мглою.
Явления - указаны атмосферные явления, наблюдавшиеся в срок или в последний час перед сроком; фигурными скобками обозначены явления, наблюдавшиеся между сроками (за 1-3 часа до срока); квадратными скобками обозначены град или гололедные отложения с указанием их диаметра в мм.
Облачность - указаны через наклонную черту общая и нижняя облачность в баллах и высота нижней границы облаков в метрах; квадратными скобками обозначены формы облаков: Ci - перистые, Cs - перисто-слоистые, Cc - перисто-кучевые, Ac - высококучевые, As - высокослоистые, Sc - слоисто-кучевые, Ns - слоисто-дождевые, Cu - кучевые, Cb - кучево-дождевые. Подробнее классификацию облаков см. в Атласе облаков (PDF).
T - Температура воздуха - температура, измеренная на высоте 2 м над землей.
Td - Температура точки росы - температура, при понижении до которой содержащийся в воздухе водяной пар достигнет насыщения.
f - Относительная влажность воздуха - влажноcть воздуха, измеренная на высоте 2 м над землей.
Te - Эффективная температура - температура, которую ощущает одетый по сезону человек в тени. Характеристика душности погоды. При расчете учитывается влияние влажности воздуха и скорости ветра на теплоощущения человека.
Tes - Эффективная температура на солнце - температура, которую ощущает человек, с поправкой на солнечный нагрев. Характеристика знойности погоды. Зависит от высоты солнца над горизонтом, облачности и скорости ветра. Ночью, в пасмурную погоду, а также при ветре 12 м/с и более поправка равна нулю.
P - Атмосферное давление - приведенное к уровню моря атмосферное давление.
Po - Атмосферное давление - измеренное на уровне метеостанции атмосферное давление.
Tmin - Минимальная температура - минимум температуры воздуха на высоте 2 м над землей.
Tmax - Максимальная температура - максимум температуры воздуха на высоте 2 м над землей.
R - Количество осадков - Количество выпавших осадков за период времени, мм. При наведении курсора мыши на число - период времени, за который выпало указанное количество осадков.
R24 - Количество осадков - Количество выпавших осадков за 24 часа, мм.
S - Снежный покров - Высота снежного покрова, см. При наведении курсора мыши на число - состояние снежного покрова и степень покрытия местности в баллах.